[[{"header":{"parameterUnit":"m.s-1","parameterCategory":1,"la1":30.2991,"la2":30.254,"lo1":-89.0895,"lo2":-89.0444,"dy":0.0017,"dx":0.0017,"nx":28,"ny":28,"refTime":"2023-03-31T21:00:00:Z","depth":0,"parameterNumber":2,"parameterNumberName":"U-component_of_WINDS"},"data":[0,0,0,0,0,0,0,0,0,0,0,0,0,0,0,0,0,0,0,0,0,0,0,0,0,0,0,0,0,0,0,0,0,0,0,0,0,0,0,0,0,0,0,0,0,0,0,0,0,0,0,0,0,0,0,0,0,0,1.5202,1.5203,0,1.5332,1.5334,1.5335,1.5318,1.5315,1.5313,1.5311,1.5449,1.5454,1.546,0,0,0,0,0,0,0,0,0,0,0,0,0,1.4944,1.4948,1.5202,1.5203,1.5205,1.5332,1.5334,1.5335,1.5318,1.5315,1.5313,1.531,1.5447,1.5453,1.546,0,0,0,0,0,0,0,0,0,0,0,0,0,1.5063,1.495,1.5201,1.5211,1.5214,1.5331,1.5334,1.5336,1.5318,1.5315,1.5312,1.5309,1.5445,1.5453,1.5461,1.5579,0,0,1.5487,1.5491,0,0,0,0,0,0,0,0,1.5056,1.5073,1.5208,1.5211,1.5214,1.5305,1.5293,1.5417,1.5319,1.5279,1.5311,1.5307,1.5404,1.5415,1.5447,1.5585,1.5591,1.5488,1.5493,1.5497,1.5499,0,0,0,0,0,0,0,1.5048,1.5067,1.5253,1.521,1.5214,1.5211,1.5225,1.5316,1.5358,1.5282,1.5281,1.5297,1.5405,1.5439,1.545,1.5593,1.5488,1.5495,1.5501,1.5504,1.5837,1.5841,0,0,0,0,0,0,1.5036,1.506,1.5249,1.5257,1.5125,1.5219,1.5233,1.5279,1.5357,1.5366,1.5299,1.5295,1.5426,1.544,1.5455,1.56,1.5497,1.5505,1.551,1.5834,1.5838,1.5842,0,0,0,0,0,0,1.5031,1.5053,1.5244,1.5159,1.5183,1.5226,1.5278,1.5283,1.5318,1.537,1.5378,1.5326,1.5424,1.5443,1.5549,1.5604,1.5509,1.5516,1.5829,1.5835,1.584,1.5889,0,0,0,0,0,0,1.5024,1.5052,1.5095,1.516,1.5187,1.5334,1.5281,1.5288,1.5332,1.5328,1.5397,1.5406,1.5423,1.5536,1.5557,1.5614,1.5523,1.5824,1.5832,1.5838,1.5883,1.5896,1.5907,0,0,0,0,0,1.5014,1.5104,1.5097,1.512,1.5242,1.5337,1.5353,1.537,1.5336,1.5382,1.5416,1.5404,1.5594,1.5547,1.557,1.5631,1.5821,1.583,1.5838,1.5878,1.5893,1.5907,0,0,0,0,0,0,1.5046,1.5113,1.5106,1.5219,1.5272,1.5334,1.5391,1.5386,1.5451,1.5444,1.5464,1.548,1.5587,1.5619,1.5565,1.5751,1.5703,1.5717,1.5726,1.5741,1.5753,1.5744,1.553,0,0,0,0,0,1.5066,1.5136,1.5191,1.5285,1.5312,1.5347,1.5389,1.5397,1.5454,1.5477,1.5518,1.5575,1.5649,1.5696,1.5766,1.5887,1.5904,1.5941,1.5953,1.5962,1.5975,1.6044,1.6062,1.587,1.587,1.587,0,0,1.5108,1.5153,1.5196,1.5293,1.5335,1.5409,1.5366,1.5446,1.5502,1.549,1.5592,1.5625,1.569,1.5804,1.5856,1.5834,1.6031,1.5973,1.598,1.5988,1.6055,1.6073,1.6089,1.5876,1.5875,1.5874,0,0,1.5224,1.5263,1.5348,1.5391,1.5456,1.5479,1.5499,1.5562,1.5583,1.5686,1.5679,1.5746,1.5871,1.5919,1.5959,1.6094,1.6087,1.6116,1.618,1.6248,1.6263,1.6276,1.6327,1.6345,1.6128,1.6128,1.6128,0,1.5268,1.5378,1.5392,1.5473,1.5517,1.5508,1.5595,1.5637,1.5722,1.5754,1.5727,1.5885,1.5928,1.6055,1.6088,1.612,1.6146,1.6109,1.6259,1.6273,1.6286,1.6335,1.6353,1.6131,1.6131,1.6131,1.613,0,1.5431,1.5507,1.5568,1.5649,1.57,1.5783,1.5813,1.5862,1.5867,1.5893,1.6,1.6051,1.6132,1.6163,1.6168,1.6291,1.6276,1.6254,1.6208,1.6307,1.6354,1.6372,1.6136,1.6135,1.6134,1.6133,0,0,1.557,1.5659,1.5681,1.5719,1.5791,1.5851,1.5935,1.6014,1.6058,1.6116,1.619,1.6296,1.6277,1.6323,1.6333,1.6392,1.65,1.6364,1.6365,1.6389,1.6642,1.666,1.6681,1.6494,1.6498,1.6501,1.6638,0,1.5694,1.5842,1.5858,1.5991,1.6063,1.6057,1.6131,1.6184,1.6211,1.6278,1.6309,1.6385,1.6352,1.6381,1.6438,1.6474,1.6551,1.6464,1.6565,1.6568,1.6551,1.6705,1.6723,1.685,1.6655,1.6659,1.6661,0,1.5858,1.5922,1.6062,1.6125,1.6156,1.6222,1.6297,1.636,1.6421,1.6437,1.6489,1.6492,1.6582,1.6531,1.6656,1.6597,1.6639,1.6663,1.6668,1.668,1.6622,1.6723,1.689,1.691,1.6689,1.6687,1.6685,0,1.5949,1.6069,1.6169,1.6201,1.6277,1.6324,1.6358,1.6416,1.6463,1.6529,1.656,1.6636,1.6678,1.6737,1.6762,1.6722,1.6887,1.6837,1.6905,1.6905,1.6942,1.694,1.7121,1.6965,1.6965,1.6965,1.6964,0,1.6087,1.6173,1.6211,1.6273,1.637,1.6389,1.6486,1.6518,1.657,1.6639,1.6638,1.6704,1.6732,1.6802,1.6822,1.6925,1.6943,1.6961,1.6965,1.6962,1.696,1.6991,1.6984,1.697,1.6969,1.6968,1.6967,0,1.6205,1.6233,1.6342,1.6405,1.6423,1.6493,1.6548,1.6609,1.6635,1.6724,1.6746,1.6788,1.6872,1.6902,1.7003,1.7017,1.7137,1.7133,1.7116,1.7118,1.7185,1.7179,1.7394,1.7425,1.7247,1.7249,1.725,0,1.6292,1.6359,1.6429,1.6475,1.6511,1.6585,1.6633,1.6654,1.6705,1.678,1.6833,1.6916,1.6983,1.7117,1.7159,1.7237,1.7237,1.7307,1.7249,1.7244,1.7241,1.7238,1.7246,1.7318,1.732,1.7322,1.7323,0,1.6445,1.6456,1.6524,1.6599,1.6656,1.6716,1.6774,1.6812,1.6843,1.69,1.6985,1.7038,1.7142,1.7225,1.7305,1.7343,1.734,1.734,1.7361,1.7359,1.7348,1.7358,1.7148,1.7336,1.7335,1.7334,1.7333,1.7332,1.6552,1.6612,1.6671,1.6748,1.6794,1.6849,1.691,1.6944,1.7015,1.7101,1.7109,1.7202,1.7264,1.7371,1.7413,1.7486,1.7468,1.7496,1.7504,1.7512,1.7518,1.7334,1.7501,1.7501,1.75,1.75,1.75,0,1.6707,1.6745,1.6815,1.6897,1.6958,1.6948,1.7012,1.7065,1.7146,1.7203,1.7269,1.7369,1.745,1.7498,1.758,1.763,1.7631,1.7651,1.7649,1.7658,1.7529,1.7504,1.7649,1.7649,1.7649,1.7649,1.7649,1.7649,1.6794,1.6896,1.6914,1.7039,1.7077,1.7167,1.7205,1.7256,1.7302,1.7413,1.748,1.751,1.7565,1.7651,1.7726,1.7738,1.777,1.7792,1.7803,1.7682,1.7667,1.7652,1.7629,1.7798,1.7798,1.7926,1.7928,1.7929]},{"header":{"parameterUnit":"m.s-1","parameterCategory":1,"la1":30.2991,"la2":30.254,"lo1":-89.0895,"lo2":-89.0444,"dy":0.0017,"dx":0.0017,"nx":28,"ny":28,"refTime":"2023-03-31T21:00:00:Z","depth":0,"parameterNumber":3,"parameterNumberName":"V-component_of_WINDS"},"data":[0,0,0,0,0,0,0,0,0,0,0,0,0,0,0,0,0,0,0,0,0,0,0,0,0,0,0,0,0,0,0,0,0,0,0,0,0,0,0,0,0,0,0,0,0,0,0,0,0,0,0,0,0,0,0,0,0,0,-1.3139,-1.3137,0,-1.2963,-1.2961,-1.2959,-1.2965,-1.2967,-1.297,-1.2972,-1.278,-1.2773,-1.2766,0,0,0,0,0,0,0,0,0,0,0,0,0,-1.347,-1.3464,-1.3139,-1.3137,-1.3135,-1.2963,-1.2961,-1.2958,-1.2964,-1.2967,-1.297,-1.2973,-1.2783,-1.2774,-1.2765,0,0,0,0,0,0,0,0,0,0,0,0,0,-1.3313,-1.3462,-1.314,-1.3117,-1.3114,-1.2964,-1.2961,-1.2958,-1.2964,-1.2967,-1.2971,-1.2975,-1.2786,-1.2775,-1.2764,-1.2621,0,0,-1.273,-1.2725,0,0,0,0,0,0,0,0,-1.3322,-1.3301,-1.3123,-1.3119,-1.3114,-1.299,-1.3007,-1.2845,-1.2963,-1.302,-1.2972,-1.2976,-1.2846,-1.2831,-1.2789,-1.2612,-1.2604,-1.2729,-1.2722,-1.2718,-1.2715,0,0,0,0,0,0,0,-1.3333,-1.3309,-1.3069,-1.312,-1.3115,-1.3113,-1.3095,-1.2977,-1.2914,-1.3016,-1.3016,-1.2995,-1.2845,-1.28,-1.2785,-1.2601,-1.2729,-1.272,-1.2713,-1.2708,-1.2297,-1.2293,0,0,0,0,0,0,-1.335,-1.3318,-1.3075,-1.3064,-1.323,-1.3104,-1.3084,-1.3026,-1.2916,-1.2903,-1.2992,-1.2996,-1.2817,-1.2798,-1.2778,-1.2602,-1.2718,-1.2707,-1.2701,-1.2301,-1.2296,-1.2291,0,0,0,0,0,0,-1.3357,-1.3329,-1.3082,-1.3191,-1.3159,-1.3094,-1.3029,-1.302,-1.2976,-1.2898,-1.2886,-1.2958,-1.2819,-1.2793,-1.2661,-1.2595,-1.2702,-1.2692,-1.2306,-1.23,-1.2294,-1.225,0,0,0,0,0,0,-1.3367,-1.3331,-1.3279,-1.319,-1.3154,-1.297,-1.3026,-1.3014,-1.2958,-1.2961,-1.2863,-1.285,-1.282,-1.2677,-1.265,-1.2582,-1.2684,-1.2312,-1.2303,-1.2296,-1.2257,-1.2243,-1.2231,0,0,0,0,0,-1.3379,-1.3271,-1.3276,-1.3246,-1.3087,-1.2967,-1.2946,-1.2916,-1.2953,-1.2897,-1.2848,-1.2854,-1.2608,-1.2664,-1.2632,-1.2561,-1.2315,-1.2306,-1.2296,-1.2263,-1.2246,-1.2231,0,0,0,0,0,0,-1.3349,-1.3259,-1.3263,-1.3125,-1.3054,-1.2968,-1.2898,-1.2899,-1.2813,-1.282,-1.2783,-1.2761,-1.2628,-1.2581,-1.2645,-1.2416,-1.2466,-1.245,-1.2451,-1.2434,-1.2421,-1.2434,-1.2674,0,0,0,0,0,-1.3328,-1.3241,-1.3166,-1.305,-1.3015,-1.2963,-1.2909,-1.2893,-1.2816,-1.2785,-1.2726,-1.2649,-1.2554,-1.2492,-1.24,-1.2251,-1.2228,-1.2187,-1.2174,-1.2163,-1.2148,-1.2064,-1.2044,-1.226,-1.226,-1.226,0,0,-1.328,-1.322,-1.3167,-1.3043,-1.2986,-1.2894,-1.2937,-1.2837,-1.2767,-1.2769,-1.264,-1.2594,-1.2505,-1.2364,-1.2298,-1.232,-1.2085,-1.2151,-1.2144,-1.2134,-1.2052,-1.2032,-1.2014,-1.2253,-1.2254,-1.2256,0,0,-1.3146,-1.3094,-1.2991,-1.2934,-1.2849,-1.2816,-1.2791,-1.2705,-1.2676,-1.2547,-1.2546,-1.2461,-1.2299,-1.2236,-1.2182,-1.2026,-1.2027,-1.1997,-1.1927,-1.1846,-1.1829,-1.1813,-1.1755,-1.1735,-1.1983,-1.1983,-1.1983,0,-1.3096,-1.2961,-1.2937,-1.2838,-1.2782,-1.2784,-1.2677,-1.2622,-1.251,-1.247,-1.2498,-1.2295,-1.2236,-1.2078,-1.204,-1.1998,-1.1966,-1.2006,-1.1834,-1.1818,-1.1803,-1.1747,-1.1726,-1.198,-1.198,-1.198,-1.1981,0,-1.2903,-1.2809,-1.2736,-1.2631,-1.2568,-1.2465,-1.2423,-1.236,-1.235,-1.2312,-1.218,-1.2109,-1.2003,-1.1965,-1.1953,-1.1805,-1.1822,-1.1843,-1.1891,-1.178,-1.1726,-1.1705,-1.1975,-1.1976,-1.1977,-1.1978,0,0,-1.2742,-1.2629,-1.2602,-1.2554,-1.2461,-1.2386,-1.2283,-1.2183,-1.2129,-1.2052,-1.1962,-1.1827,-1.1845,-1.1785,-1.1765,-1.1694,-1.1572,-1.1723,-1.172,-1.1695,-1.1402,-1.1385,-1.136,-1.1574,-1.157,-1.1566,-1.1408,0,-1.2596,-1.2417,-1.2393,-1.2232,-1.2143,-1.2145,-1.2054,-1.1986,-1.1948,-1.1864,-1.1822,-1.1725,-1.1759,-1.1722,-1.1652,-1.1602,-1.1512,-1.1613,-1.1486,-1.1481,-1.1505,-1.1333,-1.1314,-1.1168,-1.1388,-1.1384,-1.1382,0,-1.2401,-1.2323,-1.2155,-1.2074,-1.2036,-1.1955,-1.1861,-1.1783,-1.1705,-1.1682,-1.1616,-1.1605,-1.1495,-1.1552,-1.1397,-1.1467,-1.1414,-1.1381,-1.1375,-1.1358,-1.1422,-1.1309,-1.1122,-1.1098,-1.1349,-1.1351,-1.1354,0,-1.2298,-1.215,-1.203,-1.1989,-1.1893,-1.1836,-1.1793,-1.1719,-1.166,-1.1577,-1.1538,-1.1442,-1.1389,-1.1314,-1.1277,-1.1322,-1.1124,-1.1178,-1.1098,-1.1099,-1.1053,-1.1056,-1.0852,-1.1025,-1.1025,-1.1026,-1.1026,0,-1.2135,-1.2031,-1.1982,-1.1908,-1.1791,-1.1764,-1.1647,-1.1605,-1.1539,-1.1454,-1.1449,-1.1369,-1.1327,-1.1239,-1.1209,-1.1085,-1.1061,-1.1037,-1.1029,-1.1035,-1.1038,-1.0997,-1.1005,-1.102,-1.1021,-1.1022,-1.1023,0,-1.1998,-1.1962,-1.183,-1.1752,-1.1729,-1.1646,-1.1576,-1.1502,-1.1467,-1.1359,-1.1332,-1.1274,-1.1171,-1.1129,-1.1001,-1.0981,-1.0837,-1.0839,-1.0864,-1.0861,-1.0783,-1.079,-1.0542,-1.0507,-1.0707,-1.0705,-1.0704,0,-1.1895,-1.1816,-1.173,-1.1674,-1.163,-1.154,-1.1482,-1.1452,-1.139,-1.1295,-1.1232,-1.113,-1.1046,-1.0881,-1.0825,-1.0727,-1.0724,-1.0645,-1.0709,-1.0717,-1.0719,-1.0723,-1.0713,-1.0631,-1.0629,-1.0628,-1.0626,0,-1.1716,-1.1702,-1.1619,-1.153,-1.1461,-1.1388,-1.1316,-1.127,-1.1229,-1.1159,-1.1056,-1.0991,-1.0863,-1.076,-1.066,-1.0611,-1.0609,-1.0607,-1.0583,-1.0586,-1.0603,-1.059,-1.0828,-1.0612,-1.0613,-1.0614,-1.0615,-1.0616,-1.159,-1.1519,-1.1448,-1.1355,-1.1299,-1.1233,-1.116,-1.1117,-1.1031,-1.0926,-1.0913,-1.0801,-1.0724,-1.0589,-1.0537,-1.0447,-1.0467,-1.0433,-1.0423,-1.0414,-1.0408,-1.0621,-1.0429,-1.0429,-1.043,-1.043,-1.043,0,-1.1407,-1.1362,-1.1278,-1.118,-1.1107,-1.1118,-1.104,-1.0976,-1.0879,-1.0809,-1.0728,-1.0608,-1.0509,-1.0447,-1.0346,-1.0286,-1.0283,-1.026,-1.0262,-1.025,-1.0397,-1.0427,-1.0264,-1.0264,-1.0264,-1.0264,-1.0265,-1.0265,-1.1303,-1.1183,-1.1161,-1.1013,-1.0967,-1.0861,-1.0815,-1.0752,-1.0696,-1.0564,-1.0483,-1.0445,-1.0377,-1.0272,-1.018,-1.0164,-1.0126,-1.0101,-1.0086,-1.0223,-1.024,-1.0257,-1.0284,-1.0094,-1.0094,-0.9946,-0.9945,-0.9944]}]]